This is the latest recevied weather packets stored in our database for station/object K4AVM-13. If no packets are shown the sender has not sent any weather packets the latest 10 day(s).
| Time | Temp. | Humidity | Pressure | Rain* | Wind** | Luminosity | Snow |
|---|---|---|---|---|---|---|---|
| 1777920901 | 24.44° C | 30% | 1014.3 hPa | 0 mm | - | 706 W/m² | - |
| 1777920598 | 24.44° C | 31% | 1014.4 hPa | 0 mm | - | 372 W/m² | - |
| 1777920293 | 24.44° C | 31% | 1014.7 hPa | 0 mm | - | 637 W/m² | - |
| 1777919989 | 24.44° C | 31% | 1014.5 hPa | 0 mm | - | 559 W/m² | - |
| 1777919686 | 23.89° C | 34% | 1014.5 hPa | 0 mm | - | 476 W/m² | - |
| 1777919384 | 24.44° C | 31% | 1014.6 hPa | 0 mm | - | 433 W/m² | - |
| 1777919081 | 24.44° C | 35% | 1014.8 hPa | 0 mm | - | 552 W/m² | - |
| 1777918778 | 24.44° C | 34% | 1014.9 hPa | 0 mm | - | 532 W/m² | - |
| 1777918475 | 23.89° C | 32% | 1015.1 hPa | 0 mm | - | 434 W/m² | - |
| 1777918174 | 23.89° C | 34% | 1015.1 hPa | 0 mm | - | 499 W/m² | - |
| 1777917872 | 23.33° C | 32% | 1014.9 hPa | 0 mm | - | 398 W/m² | - |
| 1777917570 | 23.33° C | 36% | 1015.1 hPa | 0 mm | - | 328 W/m² | - |
| 1777917267 | 23.33° C | 33% | 1015.2 hPa | 0 mm | - | 320 W/m² | - |
| 1777916965 | 23.33° C | 34% | 1015.1 hPa | 0 mm | - | 497 W/m² | - |
| 1777916662 | 22.78° C | 35% | 1015.2 hPa | 0 mm | - | 342 W/m² | - |
| 1777916359 | 22.22° C | 34% | 1015.4 hPa | 0 mm | - | 322 W/m² | - |
| 1777916055 | 22.22° C | 34% | 1015.3 hPa | 0 mm | - | 238 W/m² | - |
| 1777915753 | 23.33° C | 33% | 1015.3 hPa | 0 mm | - | 221 W/m² | - |
| 1777915449 | 23.89° C | 32% | 1015.5 hPa | 0 mm | - | 443 W/m² | - |
| 1777915145 | 24.44° C | 36% | 1015.5 hPa | 0 mm | - | 727 W/m² | - |
| 1777914843 | 23.89° C | 33% | 1015.6 hPa | 0 mm | - | 751 W/m² | - |
| 1777914540 | 23.89° C | 32% | 1015.7 hPa | 0 mm | - | 647 W/m² | - |
| 1777914236 | 23.89° C | 34% | 1015.9 hPa | 0 mm | - | 759 W/m² | - |
| 1777913933 | 23.89° C | 34% | 1015.9 hPa | 0 mm | - | 559 W/m² | - |
| 1777913629 | 22.78° C | 31% | 1016 hPa | 0 mm | - | 532 W/m² | - |
* Rain latest hour (hover to see other rain measurements)
** Current wind speed in m/s (hover to see current wind gust speed)